Погода в Валуе

Россия / Белгородская область     50°30′44″N   38°23′26″E
темп.,
°C
ветер,
м/с
пор.,
м/с
влажн.,
%
обл.,
%
осадки,
мм/ч
давл.,
гПа
погр.,
м
27 ноября, сб
сб2700:00−3ю410905 0.0 1018198
03:00−3ююв4119299 0.0 1016212
06:000юв51481100 0.0 1014315
09:00+2ююв81886100 0.0 1013481
12:00+3ююв91975100 0.3 1011562
15:00+3ююв102083100 3.1 1008642
18:00+4ююв8168498 0.1 1008483
21:00+4ю61386100 0.2 1008395
28 ноября, вс
вс2800:00+4ю51295100 0.1 1008287
03:00+5ю41198100 0.1 1008258
06:00+6ююз41098100 0.0 1007349
09:00+6ююз4998100 0.1 1009307
12:00+7ююз3794100 0.0 1009322
15:00+8ююз2489100 0.1 1011205
18:00+6ююв359246 0.0 101181
21:00+5ююв369388 0.0 1011105
29 ноября, пн
пн2900:00+5юв3996100 0.0 1011165
03:00+7ююв51398100 0.3 1009395
06:00+9ююв91693100 4.4 1006794
09:00+9ююв81695100 6.4 1005812
12:00+10ююв91692100 0.1 1003809
15:00+10ююв91793100 1.4 999931
18:00+11ю111985100 4.4 9961011
21:00+12ю101881100 5.1 993963
30 ноября, вт
вт3000:00+12ююз112087100 0.7 9901322
03:00+11юз916750 1.3 991876
06:00+7юз9147597 0.0 9941032
09:00+5зюз81576100 0.0 996876
12:00+5зюз813665 0.0 997956
15:00+5юз7136298 0.0 997890
18:00+3юз7146653 0.0 997666
21:00+2юз6136994 0.0 997695
1 декабря, ср
ср100:00+1зюз6127269 0.0 996756
03:000зюз6128199 0.0 997605
06:00−1з71283100 0.0 998742
09:00−1з6117278 0.0 1001890
12:00+1з7106397 0.0 10021167
15:00+1зюз61163100 0.0 10021074
18:000юз71283100 0.1 1002999
21:00−1зюз6129080 0.3 1002675